Regional Weather Roundup
Issued by NWS

Home | Current Version | Previous Version | Text Only | Print | Product List | Glossary Off
Versions: 1 2 3 4 5 6 7 8 9 10 11 12 13 14 15 16 17 18 19 20 21 22 23 24 25 26 27 28 29 30 31 32 33 34 35 36 37 38 39 40 41 42 43 44 45 46 47 48 49 50

000
ASUS43 KMPX 302310
RWRMN
WEATHER ROUNDUP FOR MINNESOTA
NATIONAL WEATHER SERVICE TWIN CITIES/CHANHASSEN MN
600 PM CDT SUN APR 30 2017


NOTE: "FAIR" INDICATES FEW OR NO CLOUDS BELOW 12,000 FEET WITH NO
SIGNIFICANT WEATHER AND/OR OBSTRUCTIONS TO VISIBILITY. N/A MEANS
CURRENT SKY AND/OR WEATHER CONDITIONS ARE NOT AVAILABLE.

MNZ060>063-068>070-010000-
   Twin Cities Metro

CITY           SKY/WX    TMP DP  RH WIND       PRES   REMARKS
TWIN CITIES    CLOUDY    48  33  56 NE17      29.80F
ST PAUL        CLOUDY    48  34  58 NE21G29   29.82F
CRYSTAL        CLOUDY    47  31  53 NE17G29   29.80F
BLAINE         CLOUDY    48  34  57 NE17G24   29.81F
LAKEVILLE      CLOUDY    45  36  70 NE14G23   29.77F
EDEN PRAIRIE   CLOUDY    48  33  56 NE16G26   29.78F
SOUTH ST PAUL  CLOUDY    47  33  57 NE16G28   29.80S
LAKE ELMO      CLOUDY    46  34  61 NE17G26   29.82S
$$
MNZ001>005-007-008-013>017-022>024-027-028-010000-
   Northwest Minnesota

CITY           SKY/WX    TMP DP  RH WIND       PRES   REMARKS
BEMIDJI        MOSUNNY   55  23  28 E10       29.91F
HALLOCK        SUNNY     63  19  19 NE7       29.92F
ROSEAU         SUNNY     57  27  30 E15       29.95F
WARROAD        SUNNY     55  28  35 NE9       29.97F
THIEF RVR FALL SUNNY     59  19  21 E15       29.92F
CROOKSTON      SUNNY     61  25  25 E12G17    29.91F
FOSSTON        MOSUNNY   63  19  19 E9        29.90F
DETROIT LAKES  CLOUDY    55  23  28 NE10G16   29.89S
MOORHEAD       PTSUNNY   61  19  20 E15       29.88F
PARK RAPIDS    CLOUDY    54  21  27 E9        29.88F
MAHNOMEN       FAIR      57  22  25 NE17      29.88F
$$
MNZ006-009>011-018-025>026-010000-
   North Central Minnesota

CITY           SKY/WX    TMP DP  RH WIND       PRES   REMARKS
BAUDETTE       SUNNY     58  18  21 SE15      29.95F
FLAG ISLAND    SUNNY     54  19  26 S3        29.96F
INTL FALLS     CLOUDY    56  22  26 E10       29.97S
WASKISH        PTSUNNY   57  27  30 SE14      29.93F
BIG FORK       CLOUDY    55  19  24 E9        29.93F
LONGVILLE      CLOUDY    52  21  30 E8        29.90F
GRAND RAPIDS   CLOUDY    50  22  33 E7G17     29.94F
CRANE LAKE     CLOUDY    52  18  25 E5        29.99S
ORR            PTSUNNY   54  12  19 E3        29.94S
COOK           PTSUNNY   52  21  30 E5G16     29.96F
WALKER         FAIR      51  26  37 E8        29.91S
$$
MNZ012-019>021-037-010000-
   Northeast Minnesota

CITY           SKY/WX    TMP DP  RH WIND       PRES   REMARKS
DULUTH         CLOUDY    42  24  49 E24G33    29.95F
ELY            MOSUNNY   48  18  29 E8        29.98S
HIBBING        CLOUDY    48  22  35 E10       29.95F
EVELETH        PTSUNNY   48  11  22 E10G17    29.98R
DULUTH HARBOR  CLOUDY    39  36  87 NE22      29.98F
TWO HARBORS    CLOUDY    45  28  53 E15G25    29.97F
SILVER BAY     PTSUNNY   41  28  60 NE13G20   29.99F
GRAND MARAIS     N/A     43  27  53 NE10      30.04F
G MARAIS ARPRT CLOUDY    43  12  28 NE12      30.02F
$$
MNZ029>031-032-039>041-046>048-054>057-064-010000-
   West Central Minnesota

CITY           SKY/WX    TMP DP  RH WIND       PRES   REMARKS
FERGUS FALLS   PTSUNNY   52  25  35 E13G20    29.86S
WHEATON        CLOUDY    54  21  28 NE12      29.86F
MORRIS         CLOUDY    50  28  43 E22G29    29.83S
ALEXANDRIA     CLOUDY    49  27  42 E17G24    29.85F
ELBOW LAKE     FAIR      51  28  40 NE17      29.85F
WADENA         CLOUDY    50  25  37 E13G22    29.86F
GLENWOOD       DRIZZLE   46  28  49 NE25G31   29.83F
APPLETON       LGT RAIN  46  37  71 NE13      29.81F
BENSON         LGT RAIN  48  30  49 E15G23    29.83F
ORTONVILLE     LGT RAIN  46  34  61 NE13G24   29.83S
MADISON        LGT RAIN  46  41  81 NE14G21   29.80F
WILLMAR        LGT RAIN  45  37  76 NE14G22   29.82F
$$
MNZ033>034-036-042>043-049>051-058-059-010000-
   Central Minnesota

CITY           SKY/WX    TMP DP  RH WIND       PRES   REMARKS
ST CLOUD       LGT RAIN  42  34  73 NE13G23   29.86F
SAUK CENTRE    MOCLDY    46  31  55 E13G24    29.85S
PAYNESVILLE    LGT RAIN  42  36  78 NE17G24   29.84S
AITKIN         CLOUDY    48  21  34 E9G16     29.91F
PINE RIVER     CLOUDY    52  28  40 E14G22    29.93S
BRAINERD       CLOUDY    48  26  42 E9G18     29.89F
STAPLES        CLOUDY    48  21  34 E10G21    29.87F
LONG PRAIRIE   CLOUDY    45  28  53 N18G29    29.86F
LITTLE FALLS   DRIZZLE   45  28  53 NE10G24   29.88F
LITCHFIELD     DRIZZLE   45  37  76 NE14G25   29.82F
BUFFALO        DRIZZLE   44  35  70 NE15G22   29.83F
MAPLE LAKE     LGT RAIN  44  37  75 NE16G23   29.84F
HUTCHINSON     LGT RAIN  44  38  79 NE18      29.80F
$$
MNZ037-044-045-052-053-010000-
   East Central Minnesota

CITY           SKY/WX    TMP DP  RH WIND       PRES   REMARKS
PRINCETON      RAIN      45  36  70 NE15G21   29.86F
MORA           RAIN      43  30  61 E13G25    29.91F
CAMBRIDGE      LGT RAIN  46  34  61 N10       29.84F
RUSH CITY      CLOUDY    46  28  49 NE20G33   29.87F
MOOSE LAKE     CLOUDY    43  25  49 NE12G25   29.91F
HINCKLEY       CLOUDY    45  30  57 E9G21     29.90F
CLOQUET        CLOUDY    43  21  42 E17G29    29.94F
MCGREGOR       CLOUDY    45  27  49 E15G21    29.93F
$$
MNZ071>073-080-081-089-090-097-098-010000-
   Southwest Minnesota

CITY           SKY/WX    TMP DP  RH WIND       PRES   REMARKS
MONTEVIDEO     LGT RAIN  43  39  87 E17G23    29.79F
GRANITE FALLS  DRIZZLE   44  38  80 NE18G25   29.80F
CANBY          LGT RAIN  44  39  83 NE17G24   29.80F
MARSHALL       LGT RAIN  41  38  89 E20       29.76F
REDWOOD FALLS  CLOUDY    44  33  65 NE12G28   29.76F
OLIVIA         DRIZZLE   43  36  75 NE17G26   29.77F
PIPESTONE      LGT RAIN  39  34  81 E18G28    29.68F
WINDOM         LGT RAIN  39  37  93 NE20G29   29.69F
WORTHINGTON    RAIN      38  37  97 NE30      29.66F FOG
JACKSON        LGT RAIN  37  37 100 NE25G32   29.66F
TRACY          DRIZZLE   40  38  93 NE18      29.75F
SLAYTON        LGT RAIN  37  36  96 NE21G29   29.70F
$$
MNZ065>067-074>077-082>085-091>093-010000-
   South Central Minnesota

CITY           SKY/WX    TMP DP  RH WIND       PRES   REMARKS
MANKATO        CLOUDY    45  36  70 NE20      29.71F
NEW ULM        CLOUDY    43  36  75 NE16G26   29.73F
ST JAMES       DRIZZLE   43  37  81 N20       29.71F
FAIRMONT       LGT RAIN  42  38  85 NE21      29.67F
FARIBAULT      LGT RAIN  45  37  76 NE12      29.74F
OWATONNA       DRIZZLE   45  39  81 NE20G25   29.69F
WASECA         CLOUDY    43  37  81 NE18G26   29.69F
ALBERT LEA     CLOUDY    43  36  75 NE24G33   29.65F
$$
MNZ078>079-086>088-094>096-010000-
   Southeast Minnesota

CITY           SKY/WX    TMP DP  RH WIND       PRES   REMARKS
ROCHESTER      CLOUDY    43  38  82 NE25      29.70F
RED WING       CLOUDY    52  34  50 E15G22    29.76F
STANTON        RAIN      48  37  67 NE14      29.75F
DODGE CENTER   LGT RAIN  43  39  87 NE26      29.69F
WINONA         DRIZZLE   45  37  76 E9G16     29.77F
AUSTIN         DRIZZLE   43  37  81 NE22G36   29.64F
PRESTON        DRIZZLE   41  37  84 NE20G29   29.68F
$$
ABBREVIATIONS USED IN REMARKS
   TC - TEMPERATURES IN CELSIUS
  WCI - WIND CHILL INDEX
   HX - HEAT INDEX
  VSB - VISIBILITY
$$



USA.gov is the U.S. government's official web portal to all federal, state and local government web resources and services.